Regional Weather Roundup
Issued by NWS

Home | Current Version | Previous Version | Graphics & Text | Print | Product List | Glossary On
Versions: 1 2 3 4 5 6 7 8 9 10 11 12 13 14 15 16 17 18 19 20 21 22 23 24 25 26 27 28 29 30 31 32 33 34 35 36 37 38 39 40 41 42 43 44 45 46 47 48 49 50
000
ASUS43 KLMK 231802
RWRKY
KENTUCKY REGIONAL WEATHER ROUNDUP
NATIONAL WEATHER SERVICE LOUISVILLE KY
200 PM EDT TUE SEP 23 2014

NOTE "FAIR" INDICATES FEW OR NO CLOUDS BELOW 12,000 FEET
WITH NO SIGNIFICANT WEATHER AND/OR OBSTRUCTIONS TO VISIBILITY.

KYZ001>023-026-027-061>063-070>075-231900-
WESTERN AND SOUTH CENTRAL KENTUCKY

CITY           SKY/WX    TMP DP  RH WIND       PRES   REMARKS
PADUCAH        SUNNY     76  47  35 NE10      30.28F
HENDERSON      SUNNY     66  45  45 E7        30.31F
OWENSBORO      SUNNY     72  46  39 VRB5      30.31F
HOPKINSVILLE   SUNNY     74  47  39 E10       30.27F
BOWLING GREEN  SUNNY     73  46  38 NE10G18   30.29F
GLASGOW        NOT AVBL
$$

KYZ024-025-028>034-038-045-046-053-231900-
NORTH CENTRAL KENTUCKY

CITY           SKY/WX    TMP DP  RH WIND       PRES   REMARKS
LOUISVILLE/SDF SUNNY     72  44  36 E9        30.31F
LOUISVILLE/LOU SUNNY     72  43  35 NE9       30.32F
FORT KNOX      SUNNY     70  46  43 E8        30.30F
$$

KYZ035>037-039>044-047>052-055>060-089>105-231900-
NORTHEAST KENTUCKY

CITY           SKY/WX    TMP DP  RH WIND       PRES   REMARKS
LEXINGTON      SUNNY     71  46  40 NE12      30.32F
COVINGTON      SUNNY     69  41  36 E7        30.34F
FRANKFORT      SUNNY     69  43  38 E8        30.32F
$$

KYZ054-064>069-076>088-106>120-231900-
SOUTHEAST KENTUCKY

CITY           SKY/WX    TMP DP  RH WIND       PRES   REMARKS
JACKSON        SUNNY     67  47  48 CALM      30.31F
LONDON         SUNNY     70  49  47 SE6       30.30F
SOMERSET       NOT AVBL
MIDDLESBORO    SUNNY     70  51  50 W5        30.29S
MONTICELLO     CLEAR     71  48  43 NE9       30.31F
$$



USA.gov is the U.S. government's official web portal to all federal, state and local government web resources and services.